Location: Amsterdam
(30.7274°N, 84.4357°W)
Time: 16:39:27
(UTC+00:00)

Injun/Solrad 3 - Pass Details

Date: 25 February 2026
Orbit: 871 x 985 km, 66.8° (Epoch: 11 March)

Event Time Altitude Azimuth Distance (km) Brightness Sun altitude
Rises 23:00:12 0° 353° (N) 3,597 10.9 6.2°
Reaches altitude 10° 23:03:43 10° 12° (NNE) 2,672 10.1 5.4°
Maximum altitude 23:07:42 17° 53° (NE) 2,205 9.4 4.6°
Drops below altitude 10° 23:11:43 10° 92° (E) 2,708 9.7 3.8°
Sets 23:15:17 0° 112° (ESE) 3,666 10.5 3.0°
